Weather History for KANK - July, 2013

Change the Weather History Date:

Monday, July 8, 2013

  Actual Average (KGUC) Record (KGUC)
Temperature  
Mean Temperature 71 °F -  
Max Temperature 90 °F 77 °F 87 °F (2002)
Min Temperature 52 °F 43 °F 39 °F (2003)
Cooling Degree Days 6    
Growing Degree Days 21 (Base 50)    
Moisture  
Dew Point 43 °F    
Average Humidity 46    
Maximum Humidity 93    
Minimum Humidity 10    
Precipitation  
Precipitation 0.00 in - - ()
Sea Level Pressure  
Sea Level Pressure 30.41 in    
Wind  
Wind Speed 7 mph (West)    
Max Wind Speed 23 mph    
Max Gust Speed 31 mph    
Visibility 10 miles    
Events      
Averages and records for this station are not official NWS values.
T = Trace of Precipitation, MM = Missing Value Source: NWS Daily Summary

Daily Weather History Graph

Daily Weather History Graph

Search for Another Location

Airport or City:

Trip Planner

Search our weather history database for the weather conditions in past years. The results will help you decide how hot, cold, wet, or windy it might be!

Date:

Astronomy

Jul. 08, 2013 Rise Set
Actual Time 5:47 AM MDT 8:30 PM MDT
Civil Twilight 5:16 AM MDT 9:02 PM MDT
Nautical Twilight 4:37 AM MDT 9:41 PM MDT
Astronomical Twilight 3:52 AM MDT 10:25 PM MDT
Moon 6:18 AM MDT (7/8) 8:36 PM MDT (7/8)
Length of Visible Light 15h 45m
Length of Day
14h 43m
New Moon, 0% of the Moon is Illuminated
Jul 8
New Moon
Jul 15
First Quarter
Jul 22
Full
Jul 29
Last Quarter
Aug 6
New

Hourly Weather History & Observations

Time (MDT) Temp. Dew Point Humidity Pressure Visibility Wind Dir Wind Speed Gust Speed Precip Events Conditions
12:15 AM 61.0 °F 53.4 °F 76% 30.43 in 10.0 mi SW 8.1 mph - N/A   Overcast
12:35 AM 60.1 °F 54.0 °F 80% 30.45 in 10.0 mi WSW 10.4 mph - N/A   Overcast
12:55 AM 60.1 °F 53.6 °F 79% 30.45 in 10.0 mi North 9.2 mph - N/A   Overcast
1:15 AM 59.4 °F 54.9 °F 85% 30.46 in 10.0 mi NNW 4.6 mph - N/A   Scattered Clouds
1:35 AM 58.3 °F 54.9 °F 88% 30.46 in 10.0 mi WNW 6.9 mph - N/A   Clear
1:55 AM 57.4 °F 53.8 °F 88% 30.46 in 10.0 mi West 6.9 mph - N/A   Clear
2:15 AM 57.6 °F 54.1 °F 88% 30.46 in 10.0 mi WNW 6.9 mph - N/A   Clear
2:35 AM 57.0 °F 53.6 °F 88% 30.46 in 10.0 mi Calm Calm - N/A   Scattered Clouds
2:55 AM 56.7 °F 53.6 °F 89% 30.46 in 10.0 mi Calm Calm - N/A   Mostly Cloudy
3:15 AM 56.7 °F 54.0 °F 91% 30.45 in 10.0 mi Calm Calm - N/A   Scattered Clouds
3:35 AM 56.7 °F 53.8 °F 90% 30.45 in 10.0 mi Calm Calm - N/A   Scattered Clouds
3:55 AM 56.3 °F 53.6 °F 91% 30.45 in 10.0 mi Calm Calm - N/A   Scattered Clouds
4:15 AM 54.9 °F 52.7 °F 92% 30.45 in 10.0 mi Calm Calm - N/A   Clear
4:55 AM 54.7 °F 52.7 °F 93% 30.45 in 10.0 mi WNW 4.6 mph - N/A   Clear
5:15 AM 53.8 °F 51.8 °F 93% 30.45 in 10.0 mi West 3.5 mph - N/A   Clear
5:35 AM 54.1 °F 52.0 °F 92% 30.45 in 10.0 mi Calm Calm - N/A   Clear
5:55 AM 53.6 °F 51.3 °F 92% 30.45 in 10.0 mi West 3.5 mph - N/A   Clear
6:15 AM 52.9 °F 50.7 °F 92% 30.46 in 10.0 mi WSW 5.8 mph - N/A   Clear
6:35 AM 54.3 °F 51.1 °F 89% 30.46 in 10.0 mi West 4.6 mph - N/A   Clear
6:55 AM 56.7 °F 53.1 °F 88% 30.46 in 10.0 mi NW 5.8 mph - N/A   Clear
7:15 AM 57.9 °F 53.1 °F 84% 30.47 in 10.0 mi WNW 5.8 mph - N/A   Clear
7:35 AM 59.0 °F 53.2 °F 81% 30.46 in 10.0 mi West 3.5 mph - N/A   Clear
7:55 AM 59.0 °F 52.2 °F 78% 30.47 in 10.0 mi NNW 4.6 mph - N/A   Clear
8:15 AM 60.8 °F 52.9 °F 75% 30.46 in 10.0 mi North 5.8 mph - N/A   Clear
8:35 AM 61.7 °F 52.7 °F 72% 30.46 in 10.0 mi North 5.8 mph - N/A   Clear
8:55 AM 63.1 °F 52.9 °F 69% 30.45 in 10.0 mi North 5.8 mph - N/A   Clear
9:15 AM 64.4 °F 52.2 °F 64% 30.45 in 10.0 mi North 4.6 mph - N/A   Clear
9:35 AM 66.0 °F 51.6 °F 60% 30.45 in 10.0 mi Calm Calm - N/A   Clear
9:55 AM 67.5 °F 51.1 °F 56% 30.45 in 10.0 mi Calm Calm - N/A   Clear
10:15 AM 68.9 °F 51.3 °F 53% 30.45 in 10.0 mi Calm Calm - N/A   Clear
10:35 AM 71.8 °F 52.2 °F 50% 30.44 in 10.0 mi NNE 4.6 mph - N/A   Clear
10:55 AM 74.1 °F 51.8 °F 46% 30.44 in 10.0 mi East 4.6 mph - N/A   Clear
11:15 AM 76.3 °F 51.3 °F 41% 30.43 in 10.0 mi Calm Calm - N/A   Clear
11:35 AM 81.1 °F 45.9 °F 29% 30.42 in 10.0 mi NNW 3.5 mph - N/A   Clear
11:55 AM 81.9 °F 36.5 °F 20% 30.42 in 10.0 mi West 18.4 mph 23.0 mph N/A   Clear
12:15 PM 82.6 °F 34.3 °F 18% 30.41 in 10.0 mi WSW 16.1 mph 25.3 mph N/A   Clear
12:35 PM 85.1 °F 33.6 °F 16% 30.40 in 10.0 mi WSW 15.0 mph 26.5 mph N/A   Clear
12:55 PM 86.0 °F 32.4 °F 15% 30.39 in 10.0 mi WSW 17.3 mph 27.6 mph N/A   Clear
1:15 PM 87.1 °F 34.0 °F 15% 30.39 in 10.0 mi WSW 13.8 mph 21.9 mph N/A   Clear
1:35 PM 87.8 °F 36.0 °F 16% 30.37 in 10.0 mi WSW 23.0 mph 31.1 mph N/A   Scattered Clouds
1:55 PM 86.7 °F 33.1 °F 15% 30.37 in 10.0 mi West 8.1 mph 17.3 mph N/A   Mostly Cloudy
2:15 PM 86.2 °F 33.1 °F 15% 30.37 in 10.0 mi West 8.1 mph - N/A   Scattered Clouds
2:35 PM 86.4 °F 32.4 °F 14% 30.37 in 10.0 mi West 9.2 mph - N/A   Scattered Clouds
2:55 PM 88.0 °F 31.3 °F 13% 30.37 in 10.0 mi West 9.2 mph 18.4 mph N/A   Scattered Clouds
3:15 PM 88.0 °F 30.9 °F 13% 30.36 in 10.0 mi WNW 10.4 mph 19.6 mph N/A   Scattered Clouds
3:35 PM 87.4 °F 29.8 °F 13% 30.35 in 10.0 mi West 13.8 mph 21.9 mph N/A   Scattered Clouds
3:55 PM 87.8 °F 28.9 °F 12% 30.35 in 10.0 mi WSW 9.2 mph - N/A   Scattered Clouds
4:15 PM 88.9 °F 25.3 °F 10% 30.35 in 10.0 mi West 9.2 mph 17.3 mph N/A   Scattered Clouds
4:35 PM 90.9 °F 25.9 °F 10% 30.35 in 10.0 mi West 16.1 mph 21.9 mph N/A   Scattered Clouds
4:55 PM 89.6 °F 25.3 °F 10% 30.35 in 10.0 mi West 11.5 mph 18.4 mph N/A   Clear
5:15 PM 88.7 °F 25.7 °F 10% 30.34 in 10.0 mi West 11.5 mph 18.4 mph N/A   Clear
5:35 PM 88.7 °F 26.1 °F 10% 30.34 in 10.0 mi WSW 9.2 mph 16.1 mph N/A   Clear
5:55 PM 89.1 °F 27.5 °F 11% 30.33 in 10.0 mi WSW 11.5 mph - N/A   Clear
6:15 PM 86.9 °F 32.7 °F 14% 30.34 in 10.0 mi SW 9.2 mph 16.1 mph N/A   Clear
6:35 PM 83.7 °F 37.4 °F 19% 30.33 in 10.0 mi South 10.4 mph 20.7 mph N/A   Clear
6:55 PM 82.4 °F 37.6 °F 20% 30.34 in 10.0 mi SSW 11.5 mph 18.4 mph N/A   Clear
7:15 PM 82.6 °F 37.6 °F 20% 30.34 in 10.0 mi SSW 11.5 mph 17.3 mph N/A   Scattered Clouds
7:35 PM 84.4 °F 34.2 °F 17% 30.35 in 10.0 mi NW 6.9 mph - N/A   Scattered Clouds
7:55 PM 81.9 °F 37.6 °F 21% 30.35 in 10.0 mi South 11.5 mph 17.3 mph N/A   Mostly Cloudy
8:15 PM 80.6 °F 38.8 °F 22% 30.37 in 10.0 mi South 10.4 mph 16.1 mph N/A   Mostly Cloudy
8:35 PM 79.7 °F 39.2 °F 23% 30.37 in 10.0 mi South 10.4 mph 19.6 mph N/A   Scattered Clouds
8:55 PM 78.8 °F 39.2 °F 24% 30.38 in 10.0 mi South 12.7 mph 20.7 mph N/A   Scattered Clouds
9:15 PM 77.4 °F 39.4 °F 26% 30.39 in 10.0 mi West 4.6 mph - N/A   Clear
9:35 PM 77.4 °F 39.7 °F 26% 30.41 in 10.0 mi SSW 6.9 mph - N/A   Clear
9:55 PM 77.5 °F 39.0 °F 25% 30.42 in 10.0 mi SSW 4.6 mph - N/A   Scattered Clouds
10:15 PM 76.5 °F 40.3 °F 27% 30.42 in 10.0 mi WSW 4.6 mph - N/A   Clear
10:35 PM 76.1 °F 39.0 °F 26% 30.43 in 10.0 mi SSW 6.9 mph - N/A   Clear
10:55 PM 75.2 °F 39.4 °F 27% 30.42 in 10.0 mi WSW 4.6 mph - N/A   Clear
11:15 PM 75.4 °F 38.7 °F 27% 30.43 in 10.0 mi Calm Calm - N/A   Clear
11:35 PM 73.9 °F 39.2 °F 28% 30.43 in 10.0 mi NNW 10.4 mph - N/A   Scattered Clouds
11:55 PM 73.6 °F 38.7 °F 28% 30.43 in 10.0 mi NNW 10.4 mph - N/A   Clear